Notices

What's New in latest Release from April 7th, 2021:

- Updated Glossary, including Speed of Maximum Gust, and Total Hourly Precipitation

- Updated national and regional climate services offices contacts and prices information

- Addition of station inventory lists for 1981-2010, 1971-2000, and 1961-1990 Normals.

If you haven't already, please take our survey and provide feedback about our website: https://eccc.sondage-survey.ca/f/LanguageSelection.aspx?s=442ca660-fcf1-47c0-95a9-59707d6fd709

Hourly Data Report for May 13, 2021

MUSKOKA
ONTARIO
Current Station Operator: NAVCAN

44°58'29.000" N
79°18'12.000" W
281.90 m
6115529
71532
YQA

Download Data

Hourly Data (May 2021)
Hourly Data Report for May 13, 2021
TIME
LST
Temp Definition
°C
Dew Point Definition
°C
Rel Hum Definition
%
Precip. Amount Definition
mm

Wind Dir Definition
10's deg

Wind Spd Definition
km/h
Visibility Definition
km
Stn Press Definition
kPa
Hmdx Definition


Wind Chill Definition


Weather Definition


00:00 5.6 -0.3 66 0.0 30 8 16.1 99.15     LegendNANA
01:00 1.6 -0.8 84 0.0   0 16.1 99.14     LegendNANA
02:00 0.8 -0.5 91 0.0   0 16.1 99.15     LegendNANA
03:00 -0.5 -1.4 93 0.0   0 16.1 99.15     LegendNANA
04:00 -1.0 -1.6 96 0.0   0 16.1 99.16     LegendNANA
05:00 -1.4 -2.0 96 0.0   0 16.1 99.19     LegendNANA
06:00 0.4 -0.2 96 0.0   0 16.1 99.22     LegendNANA
07:00 7.2 3.3 76 0.0 28 8 16.1 99.27     LegendNANA
08:00 9.9 2.8 61 0.0 LegendMM 4 16.1 99.29     LegendNANA
09:00 14.0 3.5 49 0.0 32 8 16.1 99.26     LegendNANA
10:00 16.7 2.6 38 0.0 34 11 16.1 99.24     LegendNANA
11:00 18.3 2.0 33 0.0 32 13 16.1 99.19     LegendNANA
12:00 18.5 1.2 31 0.0 29 18 16.1 99.13     LegendNANA
13:00 19.2 -0.1 27 0.0 31 15 16.1 99.07     LegendNANA
14:00 18.2 1.8 33 0.0 28 17 16.1 99.04     LegendNANA
15:00 19.4 1.2 29 0.0 30 21 16.1 99.01     LegendNANA
16:00 18.8 1.8 32 0.0 28 18 16.1 98.98     LegendNANA
17:00 17.8 -0.5 29 0.0 32 24 16.1 98.98     LegendNANA
18:00 16.9 0.2 32 0.0 30 15 16.1 98.98     LegendNANA
19:00 15.1 0.2 36 0.0 29 9 16.1 99.00     LegendNANA
20:00 12.8 -0.1 41 0.0 30 9 16.1 99.02     LegendNANA
21:00 11.2 -0.6 44 0.0 30 8 16.1 99.06     LegendNANA
22:00 8.4 -0.5 53 0.0 26 4 16.1 99.07     LegendNANA
23:00 6.9 -0.6 59 0.0 28 5 16.1 99.06     LegendNANA

Notes on Data Quality.

Legend

  • E = Estimated
  • M = Missing
  • NA = Not Available*
  • [empty] = Indicates an unobserved value
Date modified: